DELTA 1 DEB

Satellite information

Favourite Embed

Satellite Type and Status

DEBRISIN ORBIT

Key statistics

Satellite DELTA 1 DEB at a glance.

Uptime

18873

Days in orbit

Revolutions

≈ 12.8

Per day

Orbit

SSO

Sun Synchronous Orbit

Inclination

101.8

Latest

Satellite identification and parameters

Extended collection of information and parameters for DELTA 1 DEB.

Object identification

Identified? True

Debris? True

Object name: DELTA 1 DEB

International designator: 1973-086GP

Object number (NORAD): 14470

Object ID (CCSDS): 14470

Country: UNITED STATES OF AMERICA (US)

Current information (Y/N): Y

RCS size: SMALL

Orbital parameters

Period: 112.155 minutes

Inclination: 101.7747 deg

SMA: 7703.81 km

Apoapsis: 1411.762 km

Periapsis: 1239.588 km

RAAN: 69.9663 deg

Eccentricy: 0.0111746

Argument of periapsis: 177.9024 deg

Mean anomaly: 252.2151 deg

Mean motion: 12.8393896 rev/day

Mean motion (dot): 0.00000256 rev/day2

B* drag term: 0.0012351 1/REarth

Two-line elements (TLE)

Creation date: July 9, 2025, 2:22 a.m.

Reference frame: TEME

Reference center: EARTH

Epoch: July 8, 2025, 2:19 p.m. UTC

TLE line 0: 0 DELTA 1 DEB

TLE line 1: 1 14470U 73086GP 25189.59691231 .00000256 00000-0 12351-2 0 9998

TLE line 2: 2 14470 101.7747 69.9663 0111746 177.9024 252.2151 12.83938960987566

Live tracking on map

Real-time ground track for satellite DELTA 1 DEB.

In-orbit conjunctions

A list of the most updated potential collisions computed for object DELTA 1 DEB.

Target Orbit TCA Probability of collision Miss distance Type
COSMOS 2095 LEO 2025-06-14 10:44:12 0.0007415868 319.0 (m) PAYLOAD

Associated space launch

Meteorological satellite using radiometric imaging

DELTA 1 DEB was lifted into orbit during the mission ‘Delta 0300 | NOAA 3’, on board a Delta 0300 space rocket.

The launch took place on Nov. 6, 1973, 5:02 p.m. from Space Launch Complex 2W.

For more information about the launch, click the button.

Launch to space Delta 0300 | NOAA 3
Delta 0300 | NOAA 3

Agency: N/A

Status: Launch Successful

Launch date: Nov. 6, 1973, 5:02 p.m. UTC

Rocket: Delta 0300

Launch pad: Space Launch Complex 2W

Location: Vandenberg SFB, CA, USA

...

Latest news about this satellite

There are no fresh news available about this satellite. Check back as we update our databases every day.


Newsletter sign-up

Weekly statistics, charts and insights to help you stay on top of the space industry.